Weather History for Barrow, AK

Change the Weather History Date:

Wednesday, July 3, 2013

  Actual Average Record
Temperature  
Mean Temperature 41 °F 40 °F  
Max Temperature 47 °F 46 °F 68 °F (1932)
Min Temperature 35 °F 34 °F 26 °F (1926)
Degree Days  
Heating Degree Days 24 25  
Month to date heating degree days 59 75  
Since 1 June heating degree days 837 955  
Since 1 July heating degree days 59 75  
Cooling Degree Days 0    
Month to date cooling degree days 0  
Year to date cooling degree days 0  
Since 1 June cooling degree days 0  
Moisture  
Dew Point 35 °F    
Average Humidity 0    
Maximum Humidity 0    
Minimum Humidity 0    
Precipitation  
Precipitation 0.41 in 0.03 in 0.41 in (2013)
Month to date precipitation 0.49 0.07  
Year to date precipitation 2.48 1.09  
Snow  
Snow 0.00 in 0.00 in 0.20 in (1924)
Month to date snowfall 0.0 0.0  
Since 1 June snowfall 0.3 0.7  
Since 1 July snowfall 0.0 0.0  
Snow Depth 0.00 in    
Sea Level Pressure  
Sea Level Pressure 29.63 in    
Wind  
Wind Speed 8 mph (West)    
Max Wind Speed 15 mph    
Max Gust Speed 18 mph    
Visibility 7 miles    
Events Rain    
T = Trace of Precipitation, MM = Missing Value Source: NWS Daily Summary

Daily Weather History Graph

Daily Weather History Graph

Search for Another Location

Airport:

Trip Planner

Search our weather history database for the weather conditions in past years. The results will help you decide how hot, cold, wet, or windy it might be!

Date:

Astronomy

Dec. 31, 1969 Rise Set
Actual Time Sun does not rise Sun does not rise
Civil Twilight Sun does not rise Sun does not rise
Nautical Twilight Sun does not rise Sun does not rise
Astronomical Twilight Sun does not rise Sun does not rise
Moon 12:28 AM AKDT (7/3) No Moon Set
Length of Visible Light 24h 00m
Length of Day
24h 00m
Waning Crescent, 17% of the Moon is Illuminated
Jul 3
Waning Crescent
Jul 7
New
Jul 15
First Quarter
Jul 22
Full
Jul 29
Last Quarter

Hourly Weather History & Observations

Time (AKDT) Temp. Windchill Dew Point Humidity Pressure Visibility Wind Dir Wind Speed Gust Speed Precip Events Conditions
12:53 AM 37.0 °F 33.3 °F 33.1 °F 86% 29.61 in 8.0 mi WNW 4.6 mph - 0.03 in Rain Light Rain
1:53 AM 37.0 °F 30.4 °F 34.0 °F 89% 29.61 in 9.0 mi NW 9.2 mph - 0.03 in Rain Light Rain
2:53 AM 36.0 °F 29.6 °F 33.1 °F 89% 29.61 in 3.0 mi West 8.1 mph - 0.08 in Rain Rain
3:00 AM 35.6 °F 29.2 °F 33.8 °F 93% 29.61 in 6.0 mi West 8.1 mph - 0.00 in Rain Light Rain
3:13 AM 35.6 °F 29.9 °F 33.8 °F 93% 29.62 in 8.0 mi West 6.9 mph - 0.01 in Rain Light Rain
3:53 AM 36.0 °F 29.6 °F 33.1 °F 89% 29.61 in 10.0 mi WNW 8.1 mph - 0.03 in Rain Light Rain
4:33 AM 35.6 °F 29.9 °F 33.8 °F 93% 29.61 in 4.0 mi NW 6.9 mph - 0.03 in Rain Rain
4:45 AM 35.6 °F 30.7 °F 33.8 °F 93% 29.61 in 3.0 mi WNW 5.8 mph - 0.06 in Rain Light Rain
4:53 AM 36.0 °F - 34.0 °F 93% 29.62 in 5.0 mi Calm Calm - 0.07 in Rain Light Rain
5:29 AM 35.6 °F 27.5 °F 33.8 °F 93% 29.59 in 8.0 mi WNW 11.5 mph - 0.03 in Rain Light Rain
5:53 AM 36.0 °F 28.5 °F 33.1 °F 89% 29.59 in 8.0 mi NW 10.4 mph - 0.04 in Rain Light Rain
6:51 AM 35.6 °F 29.9 °F 33.8 °F 93% 29.58 in 5.0 mi WNW 6.9 mph - 0.04 in Rain Light Rain
6:53 AM 35.1 °F 30.1 °F 33.1 °F 92% 29.59 in 5.0 mi WNW 5.8 mph - 0.04 in Rain Light Rain
7:19 AM 35.6 °F 31.7 °F 33.8 °F 93% 29.59 in 4.0 mi West 4.6 mph - 0.04 in Rain Light Rain
7:24 AM 35.6 °F 29.9 °F 33.8 °F 93% 29.59 in 3.0 mi West 6.9 mph - 0.05 in Rain Rain
7:35 AM 35.6 °F - 33.8 °F 93% 29.60 in 2.5 mi Calm Calm - 0.07 in Rain Rain
7:44 AM 35.6 °F 30.7 °F 33.8 °F 93% 29.59 in 3.0 mi West 5.8 mph - 0.08 in Rain Light Rain
7:49 AM 35.6 °F 32.8 °F 33.8 °F 93% 29.59 in 4.0 mi West 3.5 mph - 0.09 in Rain Light Rain
7:53 AM 35.1 °F 31.0 °F 33.1 °F 92% 29.60 in 4.0 mi West 4.6 mph - 0.09 in Rain Light Rain
8:39 AM 35.6 °F 29.9 °F 33.8 °F 93% 29.59 in 9.0 mi West 6.9 mph - 0.01 in Rain Light Rain
8:53 AM 35.1 °F 29.3 °F 33.1 °F 92% 29.59 in 10.0 mi WNW 6.9 mph - 0.01 in Rain Light Rain
9:53 AM 36.0 °F 30.3 °F 33.1 °F 89% 29.60 in 10.0 mi WSW 6.9 mph - 0.01 in Rain Light Rain
9:56 AM 35.6 °F 28.6 °F 33.8 °F 93% 29.60 in 10.0 mi WSW 9.2 mph - 0.00 in Rain Light Rain
10:53 AM 36.0 °F 28.5 °F 34.0 °F 93% 29.60 in 10.0 mi WSW 10.4 mph - 0.00 in Rain Light Rain
11:00 AM 35.6 °F 28.0 °F 33.8 °F 93% 29.59 in 10.0 mi WSW 10.4 mph - 0.00 in Rain Light Rain
11:31 AM 37.4 °F 29.8 °F 33.8 °F 87% 29.60 in 10.0 mi WSW 11.5 mph - 0.00 in Rain Light Rain
11:53 AM 37.0 °F 29.8 °F 34.0 °F 89% 29.60 in 9.0 mi WSW 10.4 mph - 0.00 in   Overcast
12:00 PM 35.6 °F 28.6 °F 33.8 °F 93% 29.60 in 9.0 mi WSW 9.2 mph - N/A   Overcast
12:34 PM 37.4 °F 30.3 °F 33.8 °F 87% 29.61 in 10.0 mi WSW 10.4 mph - N/A   Overcast
12:53 PM 37.9 °F 30.5 °F 35.1 °F 89% 29.62 in 10.0 mi SW 11.5 mph - N/A   Overcast
1:53 PM 37.0 °F 29.3 °F 35.1 °F 93% 29.63 in 2.0 mi WSW 11.5 mph - 0.01 in Rain Light Rain
2:00 PM 37.4 °F 29.8 °F 35.6 °F 93% 29.63 in 3.0 mi WSW 11.5 mph - 0.00 in Rain Light Rain
2:34 PM 39.2 °F 32.0 °F 37.4 °F 93% 29.63 in 2.5 mi SW 11.5 mph - 0.00 in Rain Light Rain
2:49 PM 39.2 °F 31.6 °F 37.4 °F 93% 29.64 in 1.5 mi WSW 12.7 mph - 0.00 in Rain Light Rain
2:53 PM 39.9 °F 32.1 °F 37.0 °F 89% 29.64 in 1.8 mi SW 13.8 mph - 0.00 in Rain Light Rain
2:59 PM 39.2 °F 31.6 °F 37.4 °F 93% 29.64 in 3.0 mi SW 12.7 mph - 0.00 in Rain Light Rain
3:53 PM 41.0 °F 33.9 °F 37.9 °F 89% 29.65 in 10.0 mi WSW 12.7 mph - 0.00 in   Mostly Cloudy
4:38 PM 39.2 °F 32.5 °F 37.4 °F 93% 29.66 in 10.0 mi WSW 10.4 mph - N/A   Overcast
4:53 PM 39.9 °F 33.4 °F 37.0 °F 89% 29.67 in 10.0 mi WSW 10.4 mph - N/A   Overcast
5:53 PM 41.0 °F 35.2 °F 37.9 °F 89% 29.68 in 10.0 mi WSW 9.2 mph - N/A   Overcast
6:53 PM 44.1 °F 40.1 °F 39.9 °F 85% 29.69 in 10.0 mi SW 6.9 mph - N/A   Overcast
7:53 PM 44.1 °F 40.8 °F 39.0 °F 82% 29.70 in 10.0 mi West 5.8 mph - N/A   Overcast
8:30 PM 44.6 °F 42.2 °F 37.4 °F 76% 29.70 in 10.0 mi NW 4.6 mph - N/A   Scattered Clouds
8:53 PM 44.1 °F 41.5 °F 39.0 °F 82% 29.71 in 10.0 mi NW 4.6 mph - N/A   Scattered Clouds
9:35 PM 46.4 °F - 39.2 °F 76% 29.71 in 10.0 mi Calm Calm - N/A   Mostly Cloudy
9:53 PM 46.9 °F - 41.0 °F 80% 29.73 in 10.0 mi Calm Calm - N/A   Mostly Cloudy
10:53 PM 44.1 °F 41.5 °F 39.0 °F 82% 29.75 in 10.0 mi NE 4.6 mph - N/A   Mostly Cloudy
11:00 PM 44.6 °F 40.7 °F 39.2 °F 81% 29.75 in 10.0 mi East 6.9 mph - N/A   Scattered Clouds
11:53 PM 44.1 °F 39.0 °F 39.0 °F 82% 29.75 in 10.0 mi East 9.2 mph - N/A   Scattered Clouds